Temp
5 5 5 5 5 5 5 5 5 6 6 6 6 5 6 6 6 6 6 6 6 6 6 6 6 6 6 5 5 4 4 3
4 5 5 5 5 5 5 5 5 5 6 6 6 6 6 6 6 6 5 6 6 6 6 6 6 5 5 5 5 4 4 3
4 4 5 5 5 5 5 5 5 5 6 6 6 5 5 6 6 5 5 5 6 6 6 6 5 5 5 5 5 5 4 3
2 3 3 4 5 5 5 5 5 5 5 6 6 6 5 5 5 6 5 5 5 5 6 5 5 5 5 5 5 5 4 4
1 1 2 3 3 4 5 5 5 5 5 6 6 6 6 5 5 6 6 5 5 5 6 5 5 5 5 5 5 5 4 4
2 2 1 2 3 3 4 5 5 5 5 6 6 6 6 5 5 5 5 6 4 6 5 5 5 5 5 5 5 5 4 3
1 1 2 2 2 2 3 5 5 5 6 6 6 6 6 6 5 5 5 6 5 5 5 5 5 5 5 5 5 4 3 3
1 1 1 1 1 3 3 3 4 5 5 6 6 6 6 6 6 5 6 5 5 5 5 5 5 5 5 5 5 4 3 2
-1 -1 -0 1 1 2 3 4 3 4 5 5 5 6 5 6 5 5 6 5 5 5 5 5 5 4 5 5 5 4 3 2
-2 -2 -1 -1 1 2 3 3 3 3 5 5 5 5 5 5 5 5 4 4 4 4 4 4 4 4 4 5 4 4 3 2
-2 -2 -1 -1 -0 2 3 3 2 3 4 4 5 4 5 5 4 5 5 4 4 4 4 5 5 4 4 5 4 3 2 2
-2 -3 -1 -1 -0 0 2 3 2 2 4 4 5 4 4 4 4 4 4 4 3 3 4 4 4 4 5 4 3 3 2 1
-2 -2 -1 -1 -1 -0 0 2 2 2 2 2 3 3 3 3 3 3 3 3 3 3 4 4 4 4 5 4 3 2 2 1
-2 -2 -1 -1 -1 0 1 1 1 0 1 1 1 1 2 2 2 2 2 1 2 3 3 4 4 4 5 4 3 3 1 1
-3 -2 -1 -1 -1 -1 0 1 1 1 0 1 2 2 2 1 1 1 0 0 1 2 3 4 4 5 4 4 3 3 1 1
-3 -2 -1 -1 -2 -1 -1 -1 0 1 1 1 1 1 2 2 0 0 0 0 2 3 3 4 4 4 3 3 3 3 1 1
-4 -3 -2 -2 -2 -2 -2 -1 -1 0 1 1 1 1 1 1 1 0 1 1 1 2 3 3 4 3 3 3 3 3 1 1
-4 -4 -3 -3 -3 -2 -2 -1 -1 -1 -1 0 1 1 0 1 0 -1 -1 -0 1 1 2 2 3 3 3 3 3 3 1 -0
-5 -5 -5 -4 -4 -3 -2 -2 -2 -1 -0 -0 0 0 -0 1 0 -0 1 1 1 1 1 1 1 2 2 2 2 2 2 0
Height
3045 3043 3043 3045 3049 3051 3053 3056 3057 3060 3063 3067 3071 3075 3078 3082 3085 3089 3092 3095 3098 3101 3101 3102 3102 3102 3100 3100 3100 3101 3102 3104
3033 3032 3033 3036 3038 3040 3043 3046 3048 3050 3051 3054 3059 3063 3069 3074 3077 3082 3084 3088 3091 3094 3096 3097 3097 3097 3097 3096 3096 3097 3097 3099
3025 3024 3024 3025 3026 3029 3033 3036 3039 3040 3042 3045 3051 3056 3060 3066 3070 3073 3076 3080 3084 3087 3089 3091 3093 3093 3093 3091 3091 3093 3092 3094
3013 3013 3013 3015 3016 3018 3022 3024 3028 3031 3034 3038 3041 3046 3050 3054 3059 3065 3069 3072 3076 3079 3082 3085 3087 3087 3088 3087 3087 3087 3087 3088
3006 3004 3005 3005 3006 3008 3011 3014 3017 3021 3025 3028 3031 3036 3041 3045 3051 3058 3061 3065 3068 3071 3075 3077 3080 3081 3082 3082 3082 3081 3081 3081
3001 2999 2998 2998 2997 2997 3000 3003 3005 3010 3015 3020 3024 3028 3033 3038 3042 3048 3053 3058 3061 3064 3067 3069 3072 3075 3076 3076 3075 3075 3074 3075
2995 2993 2991 2989 2989 2989 2991 2991 2993 2997 3004 3010 3015 3020 3024 3028 3033 3039 3044 3051 3054 3057 3059 3061 3065 3068 3069 3069 3068 3068 3069 3068
2984 2982 2981 2980 2980 2980 2982 2982 2984 2988 2993 2998 3004 3011 3016 3020 3025 3031 3037 3043 3047 3050 3052 3053 3057 3061 3062 3062 3061 3061 3062 3062
2976 2970 2967 2967 2969 2971 2973 2976 2977 2980 2985 2988 2995 3001 3007 3012 3018 3022 3030 3036 3040 3044 3044 3047 3050 3053 3055 3054 3054 3054 3056 3056
2973 2967 2961 2959 2961 2964 2967 2970 2971 2972 2976 2981 2987 2994 2999 3004 3010 3014 3022 3027 3030 3034 3037 3040 3042 3045 3047 3047 3047 3048 3050 3051
2969 2964 2958 2955 2955 2957 2961 2963 2964 2966 2972 2976 2981 2986 2990 2996 3002 3006 3012 3018 3022 3026 3029 3032 3036 3038 3040 3040 3040 3042 3043 3044
2966 2961 2957 2953 2951 2953 2954 2957 2959 2962 2966 2970 2975 2979 2984 2991 2994 2998 3004 3009 3013 3017 3021 3025 3028 3030 3032 3033 3034 3035 3036 3036
2963 2958 2955 2951 2950 2950 2951 2952 2955 2957 2960 2965 2969 2973 2978 2981 2986 2990 2995 3001 3005 3010 3014 3017 3020 3023 3025 3026 3028 3029 3029 3028
2960 2956 2953 2950 2948 2948 2949 2950 2952 2955 2957 2961 2964 2967 2971 2975 2978 2982 2986 2993 2997 3002 3007 3011 3015 3017 3018 3020 3021 3022 3021 3021
2958 2955 2951 2948 2947 2947 2947 2948 2949 2951 2954 2958 2960 2960 2962 2963 2969 2973 2976 2983 2990 2995 3001 3005 3009 3011 3012 3014 3015 3016 3015 3016
2957 2953 2950 2947 2945 2945 2945 2944 2946 2949 2950 2953 2955 2957 2958 2958 2953 2958 2966 2977 2984 2990 2995 2999 3003 3005 3007 3008 3009 3011 3010 3011
2956 2953 2949 2946 2943 2943 2943 2943 2944 2945 2947 2950 2953 2954 2955 2956 2954 2960 2964 2974 2979 2984 2989 2993 2997 2999 3001 3002 3003 3005 3005 3006
2958 2954 2950 2946 2944 2943 2943 2942 2943 2943 2945 2947 2948 2950 2952 2954 2957 2957 2964 2970 2976 2980 2984 2987 2990 2994 2996 2996 2998 3000 3000 3002
2959 2956 2952 2949 2947 2944 2943 2942 2941 2943 2943 2944 2947 2947 2946 2951 2951 2956 2963 2968 2974 2977 2980 2983 2986 2987 2989 2991 2993 2995 2996 2996
Wind_Speed
37 37 37 37 37 35 35 35 36 42 47 47 43 40 36 33 32 34 37 33 29 26 23 20 17 15 15 15 15 20 23 26
32 36 40 41 42 40 38 37 35 36 39 49 48 47 43 38 32 35 34 36 34 30 27 24 21 17 14 16 17 20 22 23
33 34 36 37 44 43 41 40 38 34 37 38 47 41 39 39 34 36 36 33 36 34 31 27 24 20 17 16 19 20 21 23
27 26 27 29 36 46 41 39 42 38 32 35 42 40 39 42 40 37 37 37 38 33 32 30 27 24 21 17 20 23 22 22
26 23 20 23 23 34 41 33 38 43 36 36 41 41 40 39 41 36 37 39 39 36 31 30 30 26 24 20 21 25 24 25
23 24 26 25 25 28 37 44 39 42 41 37 36 40 41 37 34 40 39 38 34 28 26 31 31 28 27 24 22 25 26 26
35 37 32 27 30 29 34 32 35 41 46 43 40 38 36 37 39 37 36 36 35 28 27 32 32 29 28 26 24 25 27 24
40 43 38 38 35 31 24 21 27 35 43 48 46 47 40 32 36 35 35 34 37 30 30 33 32 29 29 27 26 26 27 27
39 40 35 33 28 28 24 28 20 28 30 30 35 39 37 38 37 35 33 36 35 32 28 32 30 31 30 28 26 25 27 28
28 23 20 26 26 32 24 21 20 24 24 31 34 35 29 33 39 34 37 37 35 34 31 33 32 30 30 28 26 23 26 26
20 22 16 16 21 22 22 22 21 20 26 26 29 30 31 32 35 37 41 39 36 33 33 33 32 29 29 26 25 23 26 26
12 24 15 10 11 13 15 16 19 23 31 26 29 33 34 36 35 37 40 40 35 35 35 32 29 29 27 25 24 23 25 23
19 24 15 9 8 9 13 16 16 16 18 22 23 29 32 31 37 38 37 40 35 33 34 31 29 28 26 24 23 22 23 22
19 18 15 12 8 8 10 15 20 18 19 22 23 26 33 41 38 35 38 31 30 34 32 29 29 26 24 23 21 21 20 18
17 17 15 13 8 5 8 12 17 16 16 18 23 24 23 28 35 39 39 30 30 29 28 29 27 24 22 22 20 19 15 19
15 15 14 13 7 5 6 14 14 17 20 22 17 18 21 21 18 41 28 30 34 31 30 28 23 21 22 21 19 19 16 17
13 14 14 12 6 6 8 9 7 14 18 20 16 15 18 12 14 18 20 22 24 23 24 23 20 20 21 20 19 20 15 12
11 13 16 13 7 6 7 6 8 5 11 12 15 21 22 21 21 20 21 23 23 20 21 20 18 18 19 18 20 21 17 13
11 15 18 18 16 13 4 4 3 7 12 15 11 16 14 20 20 24 24 19 18 24 25 21 20 19 17 17 20 23 21 16
Wind_Direction
272 261 251 250 251 252 256 253 253 244 243 244 244 242 242 247 245 236 235 236 242 249 257 261 267 283 290 276 266 256 254 248
276 271 260 254 251 257 258 256 259 255 245 240 238 240 245 243 245 239 235 233 237 243 252 258 264 273 284 275 265 255 251 248
276 271 269 265 254 253 257 258 254 256 253 249 239 242 244 246 241 239 237 232 235 241 248 253 258 265 274 280 272 267 256 248
302 290 280 275 265 254 255 252 250 249 247 240 237 235 237 241 237 237 237 235 236 238 244 248 253 260 268 278 270 265 262 258
309 301 284 273 268 254 246 250 252 246 242 243 239 240 243 243 237 233 242 245 236 235 242 244 248 256 263 273 272 268 259 259
306 299 291 285 281 274 257 251 259 242 239 238 245 245 243 244 248 237 238 244 236 230 241 243 244 253 261 269 270 269 262 258
298 296 288 290 284 283 265 247 249 233 237 236 237 247 244 242 239 240 236 238 236 240 245 240 240 249 258 269 270 265 259 251
308 304 281 274 274 266 256 263 245 233 230 239 241 238 239 241 235 230 233 233 235 243 244 234 237 249 256 265 270 264 256 248
310 304 289 273 269 243 244 250 264 234 232 230 229 232 237 236 227 222 234 235 239 247 243 236 237 247 256 267 269 263 256 244
301 303 294 279 253 239 243 253 262 233 231 225 226 231 232 228 224 223 229 231 233 238 241 233 236 245 256 265 264 257 253 247
297 318 307 277 271 256 250 263 256 229 229 220 219 223 225 225 221 223 224 229 231 236 236 233 237 243 256 262 257 251 253 248
303 324 314 299 270 270 270 252 229 227 230 232 233 227 227 225 223 218 222 224 233 233 232 232 234 243 255 257 253 255 258 258
311 316 325 323 289 259 265 238 229 241 237 231 230 228 224 225 226 220 218 222 232 227 229 228 233 246 255 253 250 255 259 262
322 325 320 326 316 254 248 228 227 227 222 227 228 239 247 238 227 222 214 222 227 221 224 225 235 248 253 253 254 261 257 259
329 328 327 322 321 279 234 231 223 220 219 234 251 251 248 246 230 235 219 205 210 221 224 227 239 250 252 252 257 261 251 256
332 332 329 329 308 291 271 243 230 221 223 236 229 231 247 264 242 226 213 211 214 213 221 230 242 249 248 251 256 263 243 258
356 354 353 348 327 283 267 250 242 235 232 223 220 231 242 214 184 171 195 202 210 217 224 229 235 238 242 250 259 268 263 265
19 23 28 24 9 323 272 252 248 226 226 223 243 236 221 209 193 198 185 196 223 226 218 221 225 234 241 250 258 265 265 251
41 43 43 42 41 29 320 292 256 287 252 241 228 215 232 211 220 196 192 212 223 204 231 231 232 236 241 250 256 260 262 253